Flag for Japan Weather past 2 weeks in Fukushima, Japan

Now
47 °F

Cool.


Feels Like: 47 °F
Forecast: 40 / 60 °F
Wind: 2 mph from Southwest

Location: Wakamatsu


UV Index: 0 (Low)

Visibility: 12 mi


Pressure: 30.08 "Hg

Humidity: 75%

Dew point: 39 °F

Location of FukushimaLocation

Historic Weather in Fukushima

°F

Fukushima temperature yesterday

Maximum temperature yesterday: 60 °F (at 3:00 PM)
Minimum temperature yesterday: 34 °F (at 5:00 AM)
Average temperature yesterday: 48 °F

Past Weeks' High & Low Weather Summary

 TemperatureHumidityPressure
High68 °F (Apr 15, 3:00 PM)95% (Apr 6, 3:00 PM)30.27 "Hg (Apr 6, 3:00 PM)
Low32 °F (Apr 9, 5:00 AM)13% (Apr 16, 3:00 PM)29.78 "Hg (Apr 10, 11:00 AM)
Average48 °F56%30.01 "Hg
* Reported Apr 6 2:00 AM — Apr 21 2:00 AM, Fukushima, Weather by CustomWeather, © 2014

Note: Actual official high and low records may vary slightly from our data, if they occured in-between our weather recording intervals... More about our weather records

Advertising

Historic Weather Conditions — Data for Previous 24 hours

 ConditionsComfort  
Time TempWeatherWind HumidityBarometerVisibility
2:00 AM
Apr 21
47 °FCool.2 mph72%30.09 "Hg12 mi
1:00 AM48 °FCool.2 mph68%30.11 "Hg12 mi
12:00 AM49 °FCool.5 mph64%30.12 "Hg12 mi
11:00 PM
Apr 20
49 °FCool.8 mph64%30.13 "Hg12 mi
10:00 PM50 °FCool.7 mph60%30.12 "Hg12 mi
9:00 PM49 °FCool.6 mph60%30.13 "Hg12 mi
8:00 PM52 °FCool.7 mph50%30.13 "Hg12 mi
7:00 PM53 °FCool.6 mph47%30.10 "Hg12 mi
6:00 PM55 °FCool.7 mph46%30.09 "Hg12 mi
5:00 PM58 °FRefreshingly cool.8 mph41%30.09 "Hg12 mi
4:00 PM60 °FRefreshingly cool.8 mph32%30.09 "Hg12 mi
3:00 PM60 °FRefreshingly cool.6 mph34%30.09 "Hg12 mi
2:00 PM59 °FRefreshingly cool.3 mph38%30.12 "Hg12 mi
1:00 PM55 °FRefreshingly cool.6 mph41%30.15 "Hg12 mi
12:00 PM55 °FCool.7 mph44%30.17 "Hg12 mi
11:00 AM54 °FCool.8 mph44%30.18 "Hg12 mi
10:00 AM52 °FCool.5 mph48%30.21 "Hg12 mi
9:00 AM48 °FCool.5 mph56%30.22 "Hg12 mi
8:00 AM43 °FQuite cool.3 mph71%30.24 "Hg12 mi
7:00 AM39 °FChilly.3 mph75%30.25 "Hg12 mi
6:00 AM36 °FChilly.2 mph82%30.27 "Hg12 mi
5:00 AM34 °FChilly.2 mph86%30.26 "Hg12 mi
4:00 AM36 °FChilly.3 mph83%30.25 "Hg12 mi
3:00 AM36 °FChilly.2 mph83%30.24 "Hg12 mi
Weather by CustomWeather, © 2014

See weather overview